Simultaneous Nadir Overpasses (SNOs) Predictions

Prediction of SNOs between GOES-16 and TERRA Satellite Orbit:

Table of predicted SNOs for the next 14.0 days since TLE Epoch: 10/7/2023
Index Date Time (GOES-16) GOES-16 Lat,Lon TERRA Lat,Lon Distance(km) Time Diff (sec)
1 10/08/2023 15:01:30 -0.04, -75.23 0.00, -75.55 36.44 80
2 10/10/2023 14:44:58 -0.04, -75.24 -0.80, -71.55 419.02 80
3 10/11/2023 03:07:55 0.04, -75.22 -0.21, -76.49 143.56 80
4 10/13/2023 02:48:42 0.04, -75.24 0.64, -72.49 313.02 80
5 10/13/2023 15:11:29 -0.04, -75.27 0.42, -77.38 239.56 80
6 10/15/2023 14:52:16 -0.04, -75.30 -0.47, -73.39 217.85 80
7 10/16/2023 03:15:13 0.04, -75.29 -0.57, -78.32 344.21 80
8 10/18/2023 02:55:58 0.03, -75.31 0.24, -74.31 113.66 80
9 10/18/2023 15:16:05 -0.03, -75.34 0.80, -79.20 438.80 80
10 10/20/2023 15:02:10 -0.03, -75.37 -0.04, -75.20 19.57 80
